SHIYAN 12 02 (SY-12 02)

Last updated on Sun Oct 06 2024 00:02:42 GMT+0000 (Coordinated Universal Time)

1 50322U 21129B 24279.76591333 .00000131 00000+0 00000+0 0 9991 2 50322 2.0652 89.0068 0003257 154.0284 100.7057 1.00066070 10293
UTC large
Height (km)
Speed (km/s)
/
Latitude / Longitude
Inclination (degrees)
Orbital Period (minutes)
Azimuth
Elevation
Range (km)
Doppler Factor

Next 0 passes for location: London (51.5072 / 0.1276)

Sorry there are no passes over London.